If you wish to contribute or participate in the discussions about articles you are invited to join SKYbrary as a registered user

 Actions

Yamaguchi Ube Airport

From SKYbrary Wiki

RJDC
Airport
ICAO: RJDC – IATA: UBJ
Summary
Name Yamaguchi Ube Airport
Region Asia and Pacific
Territory Japan JP.gif
Location Ube, Chūgoku
Serving Ube
Elevation 4.572 m <br />15 ft4.572 m <br />
Coordinates 33° 55' 58.82" N, 131° 16' 29.88" E
Runways
Designator Length Width Surface ROPS
7/25 2499 m8,198.819 ft <br /> 46 m150.919 ft <br /> ASP yes/yes


METAR
Observation RJDC 090900Z 29010KT 260V330 CAVOK 21/M02 Q1008
Station Yamaguchi Ube Airport
Date/Time 09 May 2021 09:00:00
Wind direction 290°
Wind speed 10 kts
Lowest cloud amount clouds and visibility OK
Temperature 21°C
Dew point
Humidity 21%
QNH 1008 hPa
Weather condition n/a

Domestic airport serving city of Ube, Japan.

Climatology

Humid “subtropical” climate (Köppen climate classification Cfa) - characterized by hot, humid summers and cool winters. Significant amounts of precipitation occur in all seasons in most areas. Winter rainfall (and sometimes snowfall) is associated with large storms that the westerlies steer from west to east. Most summer rainfall occurs during thunderstorms.

Maps

Terrain

Loading map...

Airport Layout

Loading map...


Accidents & Serious Incidents at or in vicinity of RJDC

None on SKYbrary